******** Week 148 almanac for PRN-1 ******** ID: 1 Health: 0 Eccentricity: 0.01135349274 Time of Applicability(s): 147456 Orbital Inclination(rad): 0.9866396649 Rate of Right Ascen(r/s): -7.668890868e-09 SQRT(A) (m 1/2): 5153.628418 Right Ascen at Week(rad): -1.785278375 Argument of Perigee(rad): 0.8816861678 Mean Anom(rad): -2.959130209 Af0(s): 0.0003459365112 Af1(s/s): -1.091394e-11 week: 148 ******** Week 148 almanac for PRN-2 ******** ID: 2 Health: 0 Eccentricity: 0.02067279816 Time of Applicability(s): 147456 Orbital Inclination(rad): 0.9649841704 Rate of Right Ascen(r/s): -7.817468486e-09 SQRT(A) (m 1/2): 5153.642578 Right Ascen at Week(rad): -1.874408426 Argument of Perigee(rad): -1.44603343 Mean Anom(rad): -2.809493304 Af0(s): -0.0005140058838 Af1(s/s): 0 week: 148 ******** Week 148 almanac for PRN-3 ******** ID: 3 Health: 0 Eccentricity: 0.003878593445 Time of Applicability(s): 147456 Orbital Inclination(rad): 0.97252824 Rate of Right Ascen(r/s): -7.863184676e-09 SQRT(A) (m 1/2): 5153.633301 Right Ascen at Week(rad): -0.7497705611 Argument of Perigee(rad): 0.9627182535 Mean Anom(rad): 2.165986491 Af0(s): -8.74262207e-05 Af1(s/s): -1.818989e-11 week: 148 ******** Week 148 almanac for PRN-4 ******** ID: 4 Health: 0 Eccentricity: 0.001695156097 Time of Applicability(s): 147456 Orbital Inclination(rad): 0.9614128714 Rate of Right Ascen(r/s): -7.851755628e-09 SQRT(A) (m 1/2): 5153.602051 Right Ascen at Week(rad): 0.3312039043 Argument of Perigee(rad): -3.070695853 Mean Anom(rad): -1.169180233 Af0(s): -0.0001507348633 Af1(s/s): 3.637979e-12 week: 148 ******** Week 148 almanac for PRN-5 ******** ID: 5 Health: 0 Eccentricity: 0.005875110626 Time of Applicability(s): 147456 Orbital Inclination(rad): 0.9594953954 Rate of Right Ascen(r/s): -8.011762293e-09 SQRT(A) (m 1/2): 5153.607422 Right Ascen at Week(rad): -0.7900678919 Argument of Perigee(rad): 1.009841349 Mean Anom(rad): -0.3070849026 Af0(s): -5.577189941e-05 Af1(s/s): 0 week: 148 ******** Week 148 almanac for PRN-6 ******** ID: 6 Health: 0 Eccentricity: 0.00267791748 Time of Applicability(s): 147456 Orbital Inclination(rad): 0.9860164852 Rate of Right Ascen(r/s): -7.646032773e-09 SQRT(A) (m 1/2): 5153.623535 Right Ascen at Week(rad): -1.793550861 Argument of Perigee(rad): -0.9682197618 Mean Anom(rad): -2.621148851 Af0(s): 0.0001537495605 Af1(s/s): 1.091394e-11 week: 148 ******** Week 148 almanac for PRN-7 ******** ID: 7 Health: 0 Eccentricity: 0.01551151276 Time of Applicability(s): 147456 Orbital Inclination(rad): 0.950680998 Rate of Right Ascen(r/s): -7.886042771e-09 SQRT(A) (m 1/2): 5153.643555 Right Ascen at Week(rad): 1.350178731 Argument of Perigee(rad): -2.292876588 Mean Anom(rad): 2.656586579 Af0(s): 0.0002434368042 Af1(s/s): 3.637979e-12 week: 148 ******** Week 148 almanac for PRN-8 ******** ID: 8 Health: 0 Eccentricity: 0.007257461548 Time of Applicability(s): 147456 Orbital Inclination(rad): 0.9650860364 Rate of Right Ascen(r/s): -8.000333246e-09 SQRT(A) (m 1/2): 5153.66748 Right Ascen at Week(rad): -2.864839076 Argument of Perigee(rad): 0.0977609402 Mean Anom(rad): -0.6858324742 Af0(s): -4.371311035e-05 Af1(s/s): 0 week: 148 ******** Week 148 almanac for PRN-9 ******** ID: 9 Health: 0 Eccentricity: 0.00227355957 Time of Applicability(s): 147456 Orbital Inclination(rad): 0.9544260683 Rate of Right Ascen(r/s): -7.943188008e-09 SQRT(A) (m 1/2): 5153.570312 Right Ascen at Week(rad): 0.2783261334 Argument of Perigee(rad): 1.871652429 Mean Anom(rad): -0.3351706827 Af0(s): -0.0002803668457 Af1(s/s): 0 week: 148 ******** Week 148 almanac for PRN-10 ******** ID: 10 Health: 0 Eccentricity: 0.00749206543 Time of Applicability(s): 147456 Orbital Inclination(rad): 0.9723544688 Rate of Right Ascen(r/s): -7.863184676e-09 SQRT(A) (m 1/2): 5153.62793 Right Ascen at Week(rad): -0.75256326 Argument of Perigee(rad): -2.519258971 Mean Anom(rad): 1.296912971 Af0(s): -0.0002479588501 Af1(s/s): -1.091394e-11 week: 148 ******** Week 148 almanac for PRN-11 ******** ID: 11 Health: 255 Eccentricity: 0.0002779960632 Time of Applicability(s): 147456 Orbital Inclination(rad): 0.9617424376 Rate of Right Ascen(r/s): -7.886042771e-09 SQRT(A) (m 1/2): 5153.721191 Right Ascen at Week(rad): -1.741312748 Argument of Perigee(rad): 2.85524945 Mean Anom(rad): -0.8200198405 Af0(s): -7.687478027e-05 Af1(s/s): 1.455192e-11 week: 148 ******** Week 148 almanac for PRN-12 ******** ID: 12 Health: 0 Eccentricity: 0.00866317749 Time of Applicability(s): 147456 Orbital Inclination(rad): 0.9704010401 Rate of Right Ascen(r/s): -7.943188008e-09 SQRT(A) (m 1/2): 5153.556152 Right Ascen at Week(rad): 2.463077299 Argument of Perigee(rad): 1.244705193 Mean Anom(rad): 2.000166014 Af0(s): -0.0001326466797 Af1(s/s): -7.275958e-12 week: 148 ******** Week 148 almanac for PRN-13 ******** ID: 13 Health: 0 Eccentricity: 0.005798339844 Time of Applicability(s): 147456 Orbital Inclination(rad): 0.9688311066 Rate of Right Ascen(r/s): -7.783181343e-09 SQRT(A) (m 1/2): 5153.623535 Right Ascen at Week(rad): 0.4309999157 Argument of Perigee(rad): 0.9623954285 Mean Anom(rad): -1.268599491 Af0(s): 0.0002034920654 Af1(s/s): 7.275958e-12 week: 148 ******** Week 148 almanac for PRN-14 ******** ID: 14 Health: 0 Eccentricity: 0.0014128685 Time of Applicability(s): 147456 Orbital Inclination(rad): 0.9537909044 Rate of Right Ascen(r/s): -8.091765626e-09 SQRT(A) (m 1/2): 5153.59375 Right Ascen at Week(rad): 2.431907454 Argument of Perigee(rad): 3.023469768 Mean Anom(rad): 2.060166909 Af0(s): -6.406231689e-05 Af1(s/s): -3.637979e-12 week: 148 ******** Week 148 almanac for PRN-15 ******** ID: 15 Health: 0 Eccentricity: 0.01392507553 Time of Applicability(s): 147456 Orbital Inclination(rad): 0.9302898393 Rate of Right Ascen(r/s): -8.228914196e-09 SQRT(A) (m 1/2): 5153.67334 Right Ascen at Week(rad): 0.1725207822 Argument of Perigee(rad): 1.07438464 Mean Anom(rad): -1.686984886 Af0(s): -6.783068848e-05 Af1(s/s): 3.637979e-12 week: 148 ******** Week 148 almanac for PRN-16 ******** ID: 16 Health: 0 Eccentricity: 0.01273298264 Time of Applicability(s): 147456 Orbital Inclination(rad): 0.9703590953 Rate of Right Ascen(r/s): -7.943188008e-09 SQRT(A) (m 1/2): 5153.550293 Right Ascen at Week(rad): 2.481697039 Argument of Perigee(rad): 0.7056884623 Mean Anom(rad): 0.1461023074 Af0(s): -0.0003685467407 Af1(s/s): -3.637979e-12 week: 148 ******** Week 148 almanac for PRN-17 ******** ID: 17 Health: 0 Eccentricity: 0.01364326477 Time of Applicability(s): 147456 Orbital Inclination(rad): 0.9801801676 Rate of Right Ascen(r/s): -7.817468486e-09 SQRT(A) (m 1/2): 5153.708984 Right Ascen at Week(rad): -2.7830973 Argument of Perigee(rad): -1.500737672 Mean Anom(rad): -0.7789214392 Af0(s): 0.0004522045898 Af1(s/s): 3.637979e-12 week: 148 ******** Week 148 almanac for PRN-18 ******** ID: 18 Health: 0 Eccentricity: 0.002095222473 Time of Applicability(s): 147456 Orbital Inclination(rad): 0.9704310007 Rate of Right Ascen(r/s): -7.817468486e-09 SQRT(A) (m 1/2): 5153.577148 Right Ascen at Week(rad): -1.77734332 Argument of Perigee(rad): 3.106958619 Mean Anom(rad): -2.761363908 Af0(s): 0.0001936942993 Af1(s/s): -7.275958e-12 week: 148 ******** Week 148 almanac for PRN-19 ******** ID: 19 Health: 0 Eccentricity: 0.00895357132 Time of Applicability(s): 147456 Orbital Inclination(rad): 0.9789098398 Rate of Right Ascen(r/s): -7.828897533e-09 SQRT(A) (m 1/2): 5153.637695 Right Ascen at Week(rad): -2.738224242 Argument of Perigee(rad): 2.005062693 Mean Anom(rad): 1.629496559 Af0(s): 9.19482666e-05 Af1(s/s): 3.637979e-12 week: 148 ******** Week 148 almanac for PRN-20 ******** ID: 20 Health: 0 Eccentricity: 0.005195617676 Time of Applicability(s): 147456 Orbital Inclination(rad): 0.9416448924 Rate of Right Ascen(r/s): -8.183198006e-09 SQRT(A) (m 1/2): 5153.68457 Right Ascen at Week(rad): -0.9039633439 Argument of Perigee(rad): 3.125219582 Mean Anom(rad): -1.931921096 Af0(s): 0.0004084914795 Af1(s/s): 0 week: 148 ******** Week 148 almanac for PRN-21 ******** ID: 21 Health: 0 Eccentricity: 0.02457714081 Time of Applicability(s): 147456 Orbital Inclination(rad): 0.9592377346 Rate of Right Ascen(r/s): -7.851755628e-09 SQRT(A) (m 1/2): 5153.538574 Right Ascen at Week(rad): -1.875991093 Argument of Perigee(rad): -1.010088899 Mean Anom(rad): -0.5995479273 Af0(s): 0.0001243562622 Af1(s/s): 0 week: 148 ******** Week 148 almanac for PRN-22 ******** ID: 22 Health: 0 Eccentricity: 0.01286029816 Time of Applicability(s): 147456 Orbital Inclination(rad): 0.9615446979 Rate of Right Ascen(r/s): -7.840326581e-09 SQRT(A) (m 1/2): 5153.601074 Right Ascen at Week(rad): 0.3795003307 Argument of Perigee(rad): -1.874499432 Mean Anom(rad): -0.9090278024 Af0(s): 0.0001658083496 Af1(s/s): 7.275958e-12 week: 148 ******** Week 148 almanac for PRN-23 ******** ID: 23 Health: 0 Eccentricity: 0.001973152161 Time of Applicability(s): 147456 Orbital Inclination(rad): 0.9673929997 Rate of Right Ascen(r/s): -7.908900866e-09 SQRT(A) (m 1/2): 5153.648438 Right Ascen at Week(rad): -0.7773795937 Argument of Perigee(rad): 2.952163255 Mean Anom(rad): 2.621788884 Af0(s): 3.014697266e-06 Af1(s/s): -3.637979e-12 week: 148 ******** Week 148 almanac for PRN-24 ******** ID: 24 Health: 0 Eccentricity: 0.01232910156 Time of Applicability(s): 147456 Orbital Inclination(rad): 0.9342026888 Rate of Right Ascen(r/s): -8.046049436e-09 SQRT(A) (m 1/2): 5153.641113 Right Ascen at Week(rad): 1.267533644 Argument of Perigee(rad): 0.8067357017 Mean Anom(rad): -2.661532319 Af0(s): 0.0002178118774 Af1(s/s): 0 week: 148 ******** Week 148 almanac for PRN-25 ******** ID: 25 Health: 0 Eccentricity: 0.01047372818 Time of Applicability(s): 147456 Orbital Inclination(rad): 0.9577756592 Rate of Right Ascen(r/s): -8.057478483e-09 SQRT(A) (m 1/2): 5153.661621 Right Ascen at Week(rad): 2.386451289 Argument of Perigee(rad): 0.979127279 Mean Anom(rad): 1.751428557 Af0(s): 0.0002230875977 Af1(s/s): 7.275958e-12 week: 148 ******** Week 148 almanac for PRN-26 ******** ID: 26 Health: 0 Eccentricity: 0.006854057312 Time of Applicability(s): 147456 Orbital Inclination(rad): 0.9385949072 Rate of Right Ascen(r/s): -8.240343243e-09 SQRT(A) (m 1/2): 5153.639648 Right Ascen at Week(rad): 2.339601208 Argument of Perigee(rad): 0.3653533277 Mean Anom(rad): 1.099981821 Af0(s): 0.0001431981201 Af1(s/s): 3.637979e-12 week: 148 ******** Week 148 almanac for PRN-27 ******** ID: 27 Health: 0 Eccentricity: 0.01017951965 Time of Applicability(s): 147456 Orbital Inclination(rad): 0.9737805915 Rate of Right Ascen(r/s): -7.908900866e-09 SQRT(A) (m 1/2): 5153.603027 Right Ascen at Week(rad): -2.845484928 Argument of Perigee(rad): 0.6355882367 Mean Anom(rad): -0.7360834527 Af0(s): 8.591887207e-05 Af1(s/s): 1.818989e-11 week: 148 ******** Week 148 almanac for PRN-29 ******** ID: 29 Health: 0 Eccentricity: 0.001809120178 Time of Applicability(s): 147456 Orbital Inclination(rad): 0.9821815332 Rate of Right Ascen(r/s): -7.806039438e-09 SQRT(A) (m 1/2): 5153.709961 Right Ascen at Week(rad): -2.770105651 Argument of Perigee(rad): 2.26516494 Mean Anom(rad): -0.6165509209 Af0(s): -0.0003768371582 Af1(s/s): -3.637979e-12 week: 148 ******** Week 148 almanac for PRN-30 ******** ID: 30 Health: 0 Eccentricity: 0.005487918854 Time of Applicability(s): 147456 Orbital Inclination(rad): 0.9358445276 Rate of Right Ascen(r/s): -8.046049436e-09 SQRT(A) (m 1/2): 5153.527344 Right Ascen at Week(rad): 1.363434407 Argument of Perigee(rad): -2.748237811 Mean Anom(rad): 2.689075438 Af0(s): -0.0004047231079 Af1(s/s): -3.637979e-12 week: 148 ******** Week 148 almanac for PRN-31 ******** ID: 31 Health: 0 Eccentricity: 0.01045751572 Time of Applicability(s): 147456 Orbital Inclination(rad): 0.9549054373 Rate of Right Ascen(r/s): -7.828897533e-09 SQRT(A) (m 1/2): 5153.634766 Right Ascen at Week(rad): 1.368245699 Argument of Perigee(rad): 0.3743613452 Mean Anom(rad): 2.203107253 Af0(s): -0.0001296319824 Af1(s/s): -3.637979e-12 week: 148 ******** Week 148 almanac for PRN-32 ******** ID: 32 Health: 0 Eccentricity: 0.005543231964 Time of Applicability(s): 147456 Orbital Inclination(rad): 0.9582789966 Rate of Right Ascen(r/s): -7.897471818e-09 SQRT(A) (m 1/2): 5153.717285 Right Ascen at Week(rad): 0.2894916859 Argument of Perigee(rad): -2.359614115 Mean Anom(rad): -0.08179495656 Af0(s): -5.04961792e-05 Af1(s/s): -7.275958e-12 week: 148